COSMOS 2520

Last updated on Jan. 19, 2020, 4:37 a.m. UTC

1 42907U 17046A   20018.75049382  .00000132  00000-0  00000+0 0  9994
2 42907   0.0267 102.2756 0000149 177.7181 152.7878  1.00271566  8912
UTC
Height (km)
Latitude
Longitude
Inclination
Orbital Period
UTC large
Height (km)
Speed (km/s)
/
Latitude / Longitude
Inclination (degrees)
Orbital Period (minutes)
Azimuth
Elevation
Range (km)
Doppler Factor
iOS Compass Heading
iOS Angle

Next 30 passes for location: Hong Kong

Rise time Rise Azimuth (degrees) Set time Set Azimuth (degrees) Duration Max altitude (degrees)

No matching passes for this satellites